Location: Waco, TX
(31.5480°N, 97.1670°W)
Time: 06:03:18
(UTC-05:00)

ISS - Pass Details

Date: 29 September 2022
Orbit: 414 x 417 km, 51.6° (Epoch: 01 October)

Event Time Altitude Azimuth Distance (km) Brightness Sun altitude
Rises 22:55:24 0° 310° (NW) 2,356 - -45.7°
Reaches altitude 10° 22:57:32 10° 306° (NW) 1,490 - -46.0°
Maximum altitude 23:00:48 53° 228° (SW) 514 - -46.6°
Drops below altitude 10° 23:04:03 10° 150° (SSE) 1,482 - -47.2°
Sets 23:06:10 0° 146° (SE) 2,340 - -47.6°
